Wind_Speed
16 16 16 15 15 14 14 14 14 13 13 13 13 13 12 12 12 11 11 11 10 10 9 9 8 8 8 8 8 7 7 6 6 5 5 4 3 3 3 3 2 2 1
17 17 17 16 16 15 15 15 15 15 15 15 14 14 14 14 14 13 13 13 12 12 11 11 10 10 9 9 9 9 9 8 7 7 7 6 5 5 4 4 4 3 3
18 17 17 17 17 17 16 16 16 16 17 17 16 16 16 15 16 15 15 14 14 14 14 13 13 12 11 10 10 10 10 9 9 8 8 7 7 6 5 5 5 5 4
18 18 19 19 18 18 18 18 18 18 17 18 18 18 17 17 17 17 17 17 16 16 16 15 15 14 13 12 12 11 11 10 10 10 10 9 9 8 7 7 6 6 6
19 19 19 20 20 20 19 19 19 19 19 18 18 18 18 18 19 19 19 19 18 18 18 17 17 16 15 15 14 13 12 12 12 12 12 11 10 10 9 9 8 8 8
20 20 20 21 21 21 20 20 20 20 20 20 20 20 19 19 20 20 20 21 21 20 20 19 19 18 17 16 16 15 14 14 13 13 13 13 13 12 11 11 11 10 10
21 21 21 22 22 22 22 22 22 22 22 22 22 22 21 21 21 21 22 22 22 23 22 22 21 20 19 19 18 17 17 16 16 16 15 15 15 14 14 13 13 13 12
22 22 22 23 23 23 23 23 23 24 24 24 24 24 23 23 23 23 23 23 23 24 24 24 24 23 22 22 21 19 19 19 18 18 18 18 17 17 16 15 15 14 14
24 24 24 24 24 24 25 24 25 25 25 25 26 26 26 25 25 25 25 25 26 26 27 27 27 26 25 24 23 23 22 21 20 20 20 20 19 19 18 17 17 17 16
26 26 26 25 25 26 26 26 27 26 26 26 27 27 27 28 28 27 27 27 28 28 28 29 29 28 28 27 26 26 25 24 23 22 22 22 21 21 20 20 20 19 19
28 27 27 27 27 27 27 28 27 27 27 28 28 29 29 30 30 30 29 30 31 31 30 31 30 31 30 30 29 28 27 26 25 25 24 24 24 23 23 22 22 21 21
30 29 29 29 28 28 28 28 29 29 29 29 30 30 31 31 32 32 31 32 32 33 33 33 33 32 32 32 31 30 29 29 28 27 26 26 26 25 25 25 24 24 24
32 32 31 31 30 30 30 29 29 30 30 30 31 31 32 33 33 33 33 34 34 34 35 35 35 35 34 34 33 33 32 31 30 29 28 28 28 27 27 27 26 26 26
33 33 33 32 32 32 32 31 31 31 31 31 31 32 33 33 34 34 35 35 36 36 36 37 37 37 36 36 35 35 34 33 33 32 31 30 30 30 29 28 28 28 28
34 34 34 33 33 33 33 33 33 33 33 33 34 34 34 34 34 35 35 36 36 37 37 37 38 38 38 38 37 36 36 35 34 34 34 33 32 32 32 31 30 30 29
35 35 35 35 35 35 35 34 34 34 34 35 35 34 34 35 36 36 36 36 37 37 38 38 39 39 40 40 39 38 38 37 36 36 36 35 34 33 34 33 32 31 31
37 37 37 36 36 37 37 36 36 36 36 36 36 36 35 35 36 37 38 38 39 39 40 39 40 41 41 41 41 40 40 40 39 38 37 37 36 35 34 35 34 33 33
39 39 39 38 38 38 38 38 38 38 38 37 37 37 37 37 37 38 39 40 41 41 41 42 42 42 43 43 43 42 42 41 41 40 39 39 38 37 37 36 35 35 35
40 40 40 40 40 40 39 39 40 39 39 38 38 38 39 40 40 40 40 41 42 43 43 44 45 45 45 45 45 44 43 43 42 41 41 41 39 38 38 37 37 36 36
41 41 41 41 41 41 41 41 41 41 41 41 40 40 40 41 41 42 42 43 44 44 45 45 45 46 46 47 47 46 45 45 44 44 43 43 42 40 40 39 38 39 38
41 41 41 41 41 42 42 42 42 41 42 42 42 43 43 43 43 43 44 44 44 44 45 45 46 47 47 48 49 49 48 47 46 46 45 44 44 43 43 41 40 40 40
41 42 42 42 42 42 43 43 44 43 43 44 44 45 45 45 45 45 45 45 45 45 46 47 47 47 48 49 50 50 49 49 49 48 47 47 46 45 44 44 43 42 43
41 42 42 42 43 43 44 45 45 45 45 45 45 46 46 46 46 46 47 47 46 45 46 48 48 47 48 49 50 50 50 50 50 49 48 47 47 47 46 45 45 44 44
41 42 43 43 44 44 45 46 46 46 45 45 46 46 46 46 46 46 47 47 47 46 46 47 48 48 48 48 49 50 51 51 51 50 50 49 48 48 47 47 46 46 45
42 42 44 45 46 46 46 46 47 47 47 46 47 46 46 46 46 46 47 47 47 47 47 47 48 49 49 48 49 50 51 52 51 51 51 50 49 49 49 49 48 48 47
43 43 45 46 47 47 48 48 48 48 48 47 46 47 47 47 47 47 48 48 48 48 47 47 48 48 49 49 49 49 50 51 52 52 52 51 50 50 50 50 50 50 50
Wind_Direction
240 240 241 243 243 243 244 245 246 246 246 246 246 245 244 244 244 244 242 242 242 242 243 241 235 234 232 230 226 224 222 223 224 224 223 221 220 213 210 209 204 201 197
243 243 242 244 245 246 247 247 247 249 249 249 248 247 246 245 244 244 244 244 243 241 241 241 241 239 239 234 231 230 230 231 234 236 235 231 231 229 228 225 221 225 231
246 246 245 245 246 246 247 247 249 250 251 251 249 249 248 247 245 245 245 244 243 243 242 241 240 241 243 240 236 234 234 235 237 238 237 234 234 236 236 236 234 236 240
248 249 247 247 246 247 248 249 251 252 252 252 251 250 250 247 246 245 246 245 245 245 244 242 242 243 243 243 241 240 238 238 238 239 236 236 236 238 240 241 242 244 245
250 250 250 248 248 248 249 251 252 254 251 252 252 251 250 249 248 248 247 245 245 245 245 243 243 244 244 246 245 244 243 243 243 241 239 240 240 241 243 244 247 249 249
252 253 252 250 251 251 251 252 254 255 254 254 255 253 250 250 249 250 249 247 245 245 244 245 245 245 245 245 245 245 246 246 245 242 242 243 243 244 246 248 250 250 251
253 252 252 252 253 253 254 254 255 256 256 257 257 255 254 253 251 251 250 250 249 247 246 245 245 246 246 247 248 249 248 248 247 246 246 246 246 247 248 250 252 252 253
253 253 252 254 255 256 257 256 256 257 257 257 257 257 256 255 253 252 252 252 250 250 249 248 247 247 247 248 249 250 249 249 250 249 248 249 250 250 250 250 252 254 256
253 254 255 256 258 258 258 260 259 258 258 257 257 258 257 255 255 253 253 253 252 251 251 250 249 247 248 249 250 250 250 250 252 252 250 250 250 251 251 252 253 255 256
253 255 256 258 259 258 259 260 261 261 261 259 258 259 259 257 255 254 253 253 253 252 251 251 250 249 249 249 250 251 252 252 251 252 251 251 250 251 253 255 255 255 256
253 255 257 259 259 259 260 261 261 262 262 261 261 260 260 259 256 255 254 254 253 252 253 251 250 250 250 250 251 251 252 252 252 251 251 251 251 253 254 256 256 256 257
253 255 256 257 257 258 260 261 262 263 264 264 263 263 262 260 258 257 257 256 254 253 252 251 250 251 252 252 251 251 252 252 253 252 251 252 253 254 255 255 257 258 259
254 255 256 257 257 258 259 261 263 264 265 265 265 264 262 261 260 259 259 258 257 255 254 253 251 250 251 251 251 251 252 253 253 253 253 253 254 254 255 256 257 259 259
255 254 255 257 258 259 260 262 263 265 265 266 266 265 263 262 260 259 259 258 257 257 255 253 251 250 251 251 251 251 251 252 252 253 254 254 254 255 255 256 257 259 259
255 256 256 257 258 260 261 263 265 265 265 266 266 266 264 262 261 260 260 259 259 258 256 254 253 251 250 251 251 251 251 251 252 252 254 255 254 255 255 257 258 259 260
255 256 258 259 260 260 262 263 265 266 266 266 266 265 263 262 262 262 261 261 259 258 256 254 253 252 252 251 252 252 252 253 253 253 254 255 255 256 256 256 258 259 259
256 257 258 258 260 261 262 264 265 266 266 266 265 264 263 262 263 263 263 261 260 258 257 256 255 254 252 252 252 252 252 253 253 253 253 254 255 256 257 257 257 258 258
256 257 257 258 260 262 263 264 265 266 266 266 265 264 263 262 263 264 264 263 261 260 260 258 256 255 253 253 253 252 252 253 253 253 253 254 254 255 256 257 256 256 257
256 256 257 258 259 261 263 264 264 265 266 265 265 265 264 264 264 264 264 264 263 261 261 259 257 256 255 254 253 253 252 252 252 252 253 253 254 255 256 257 257 255 256
256 256 257 258 259 261 262 263 264 264 264 265 265 265 266 265 264 264 264 264 263 263 261 259 258 257 256 254 253 253 253 253 253 252 253 253 254 254 255 257 257 255 255
257 257 257 258 259 261 262 262 264 264 264 264 264 265 266 266 265 265 265 264 264 263 261 259 258 257 256 255 254 253 252 252 253 253 253 253 254 256 256 256 257 256 255
258 258 257 258 260 260 261 262 263 263 263 264 263 265 265 265 265 266 266 265 265 263 261 259 258 257 257 256 254 253 252 251 252 253 253 253 254 255 256 256 256 257 256
259 258 257 258 259 260 261 261 263 263 264 264 264 265 265 266 266 267 267 266 265 263 261 259 258 258 257 255 254 253 252 251 252 252 252 253 254 254 255 256 256 256 255
260 259 258 258 259 260 261 262 263 264 265 264 264 266 266 266 267 267 266 265 265 265 262 260 259 259 258 257 255 254 253 252 252 252 252 253 254 255 255 255 256 256 256
262 261 260 259 259 260 261 262 264 264 265 265 264 265 266 266 267 267 266 265 264 265 263 261 260 260 259 258 257 256 254 253 253 253 252 253 253 254 255 255 256 256 257
263 263 262 261 260 261 262 264 264 265 265 265 265 264 265 266 266 267 266 265 264 263 263 262 261 261 261 259 257 257 255 255 255 254 253 253 253 254 255 256 256 257 257
Height
5832 5833 5834 5836 5837 5838 5839 5840 5842 5843 5843 5844 5845 5846 5847 5847 5848 5849 5850 5851 5851 5852 5852 5853 5854 5854 5855 5856 5857 5858 5858 5859 5859 5860 5861 5862 5862 5863 5863 5864 5865 5865 5866
5829 5830 5832 5833 5834 5836 5837 5838 5839 5840 5841 5842 5843 5844 5845 5845 5846 5847 5848 5849 5850 5851 5851 5852 5853 5853 5854 5855 5856 5856 5857 5858 5859 5859 5860 5861 5862 5862 5863 5863 5864 5865 5865
5826 5828 5829 5830 5831 5833 5834 5835 5836 5838 5839 5839 5840 5841 5842 5843 5844 5845 5846 5847 5848 5849 5849 5850 5851 5852 5852 5853 5854 5855 5856 5857 5858 5858 5859 5860 5861 5861 5862 5863 5863 5864 5864
5823 5824 5826 5827 5828 5830 5831 5832 5833 5834 5835 5836 5837 5838 5839 5841 5842 5842 5843 5844 5845 5846 5847 5848 5849 5850 5851 5852 5853 5853 5854 5855 5856 5857 5858 5859 5859 5860 5861 5861 5862 5863 5863
5819 5820 5822 5823 5825 5826 5827 5829 5830 5831 5832 5833 5834 5835 5836 5837 5839 5840 5840 5841 5842 5843 5845 5845 5846 5847 5848 5849 5850 5851 5852 5853 5854 5855 5856 5857 5858 5858 5859 5860 5861 5861 5862
5815 5817 5818 5819 5821 5822 5823 5825 5826 5827 5828 5829 5830 5831 5833 5834 5835 5836 5837 5838 5839 5840 5841 5842 5843 5845 5846 5847 5848 5849 5850 5851 5852 5853 5854 5855 5856 5856 5857 5858 5858 5859 5860
5812 5813 5814 5815 5817 5818 5820 5821 5822 5823 5824 5825 5826 5827 5828 5830 5831 5832 5833 5834 5835 5837 5838 5839 5840 5841 5843 5844 5845 5846 5847 5848 5849 5850 5851 5852 5853 5854 5855 5856 5856 5857 5858
5807 5809 5810 5811 5813 5814 5815 5816 5817 5818 5820 5821 5822 5823 5824 5825 5826 5827 5829 5830 5831 5832 5834 5835 5836 5837 5839 5840 5841 5842 5843 5844 5845 5847 5848 5849 5850 5851 5852 5853 5854 5854 5855
5803 5804 5805 5807 5808 5809 5810 5811 5812 5813 5815 5816 5817 5818 5819 5820 5821 5822 5824 5825 5826 5827 5829 5830 5831 5833 5834 5835 5837 5838 5839 5841 5842 5843 5844 5845 5846 5847 5848 5849 5850 5851 5852
5798 5799 5801 5802 5803 5804 5805 5806 5807 5808 5809 5810 5811 5812 5813 5814 5815 5817 5818 5819 5820 5822 5823 5824 5826 5827 5829 5830 5832 5833 5834 5836 5837 5839 5840 5841 5842 5843 5844 5845 5846 5847 5848
5792 5794 5795 5796 5797 5798 5799 5800 5801 5802 5803 5804 5805 5806 5807 5808 5809 5810 5811 5813 5814 5815 5816 5818 5819 5821 5823 5824 5826 5828 5829 5831 5832 5834 5835 5836 5838 5839 5840 5841 5842 5843 5844
5786 5788 5789 5790 5791 5792 5793 5794 5795 5796 5796 5797 5798 5799 5800 5800 5801 5803 5804 5805 5807 5808 5809 5811 5813 5815 5816 5818 5819 5821 5823 5825 5827 5828 5830 5831 5832 5834 5835 5836 5837 5838 5839
5780 5781 5782 5783 5785 5786 5787 5787 5788 5789 5790 5790 5791 5791 5792 5793 5794 5795 5796 5797 5798 5800 5801 5803 5805 5807 5809 5811 5812 5814 5816 5818 5820 5822 5824 5825 5826 5828 5829 5830 5832 5833 5833
5772 5774 5775 5776 5777 5778 5779 5780 5781 5782 5783 5783 5783 5784 5784 5784 5785 5786 5787 5788 5789 5791 5792 5794 5796 5798 5801 5803 5805 5807 5809 5811 5813 5815 5817 5819 5820 5822 5823 5824 5825 5827 5828
5765 5766 5768 5768 5769 5770 5771 5773 5773 5774 5775 5775 5775 5776 5776 5776 5777 5778 5779 5780 5781 5782 5783 5785 5787 5789 5792 5794 5797 5799 5801 5804 5806 5808 5810 5812 5813 5815 5816 5818 5819 5820 5822
5757 5758 5759 5760 5761 5762 5763 5764 5765 5766 5766 5767 5767 5767 5767 5768 5769 5770 5771 5771 5772 5773 5775 5776 5778 5780 5783 5785 5788 5790 5793 5795 5798 5800 5802 5804 5805 5807 5809 5810 5812 5813 5815
5747 5749 5750 5752 5753 5754 5755 5756 5756 5757 5757 5758 5758 5758 5759 5759 5760 5761 5762 5763 5763 5764 5765 5766 5768 5770 5773 5775 5778 5781 5784 5786 5789 5791 5793 5795 5797 5799 5801 5803 5804 5806 5807
5738 5740 5741 5743 5744 5745 5745 5746 5747 5748 5748 5748 5748 5749 5750 5750 5750 5751 5752 5753 5754 5754 5755 5757 5758 5760 5762 5765 5768 5771 5774 5776 5779 5782 5784 5786 5788 5790 5792 5794 5796 5797 5799
5728 5730 5731 5733 5734 5735 5736 5736 5737 5737 5738 5738 5739 5739 5740 5740 5740 5741 5742 5742 5743 5744 5745 5746 5748 5749 5751 5754 5757 5760 5763 5766 5768 5771 5774 5776 5779 5781 5783 5785 5787 5788 5790
5718 5720 5721 5723 5724 5725 5725 5726 5727 5727 5728 5728 5728 5729 5729 5730 5730 5730 5731 5731 5732 5733 5734 5734 5736 5738 5740 5742 5745 5748 5752 5755 5758 5760 5763 5766 5768 5771 5773 5775 5777 5779 5781
5708 5709 5711 5712 5713 5714 5715 5716 5716 5716 5717 5717 5718 5718 5718 5719 5719 5719 5720 5720 5720 5721 5722 5722 5724 5725 5727 5729 5733 5736 5740 5743 5746 5749 5752 5755 5758 5760 5763 5765 5767 5769 5771
5698 5699 5700 5702 5702 5703 5704 5704 5705 5705 5706 5706 5706 5707 5707 5707 5707 5708 5708 5708 5708 5708 5709 5710 5711 5712 5714 5717 5720 5723 5727 5732 5734 5737 5740 5743 5746 5749 5751 5754 5756 5758 5760
5687 5688 5689 5690 5691 5692 5693 5693 5693 5693 5694 5695 5695 5695 5695 5695 5695 5695 5695 5695 5696 5696 5697 5697 5698 5699 5702 5704 5707 5710 5714 5718 5722 5726 5728 5731 5734 5737 5739 5742 5744 5747 5748
5677 5677 5678 5679 5680 5680 5681 5682 5682 5682 5683 5683 5683 5683 5683 5683 5683 5683 5683 5683 5684 5684 5684 5685 5686 5687 5689 5692 5694 5697 5701 5704 5708 5713 5716 5719 5721 5724 5727 5730 5732 5734 5736
5666 5666 5667 5667 5668 5669 5669 5669 5670 5670 5671 5671 5671 5671 5671 5671 5671 5671 5671 5671 5671 5672 5672 5673 5674 5675 5677 5679 5682 5684 5687 5691 5694 5698 5703 5706 5709 5711 5714 5717 5719 5721 5723
5654 5655 5655 5656 5656 5656 5657 5657 5658 5658 5658 5658 5659 5659 5659 5659 5659 5659 5659 5659 5659 5659 5660 5661 5662 5663 5665 5667 5669 5671 5675 5678 5681 5684 5688 5692 5695 5698 5701 5703 5706 5708 5710